sat.trackr.live / text

‹ back to catalog

STARLINK-34124

NORAD 64109 · 2025-110P

PAYLOAD ACTIVE UNKNOWN

§ Identity

Operator
Country
US
Launch date
2025-05-23
Launch site
AFWTR
Launch vehicle
Mass (kg)
RCS (m²)

Purposes: comms

External: N2YO · Heavens-Above · Gunter

§ Orbital elements

Epoch: 2026-09-20T10:53:27.380832Z

Period
94.01 min
Inclination
53.1575°
Eccentricity
0.0001740
Mean motion
15.31728265 rev/d
Perigee alt
469.5 km
Apogee alt
471.8 km
Semi-major
6,848.8 km
B*
6.2574e-4
RAAN
200.5500°
Arg perigee
94.9795°
Mean anomaly
265.1406°
Rev number
7,572

§ Raw data

STARLINK-341241 64109U 25110P   26263.45378913  .00019119  00000+0  62574-3 0  99952 64109  53.1575 200.5500 0001740  94.9795 265.1406 15.31728265 75720

JSON: /api/v1/satellites/64109 · /tle

For live sub-satellite position, see the globe view (requires WebGL).

§ Visibility from observer

Set your observer location to see the next 7 days of passes ≥ 10°. The values pass through the URL so the page stays shareable.

No JS? Fill the form by hand. The geolocation button needs JavaScript.